Location: *
(43.9900°N, 3.4811°E)
Time: 17:59:15
(UTC+00:00)

Cosmos 2366 rocket - Pass Details

Date: 25 August 2019
Orbit: 955 x 997 km, 82.9° (Epoch: 15 September)

Event Time Altitude Azimuth Distance (km) Brightness Sun altitude
Rises 22:35:55 0° 353° (N) 3,683 8.0 -33.0°
Reaches altitude 10° 22:38:27 10° 356° (N) 2,737 7.1 -33.2°
Enters shadow 22:43:30 57° 23° (NNE) 1,154 4.4 -33.5°
